Regional Weather Roundup
Issued by NWS

Home | Current Version | Previous Version | Graphics & Text | Print | Product List | Glossary On
Versions: 1 2 3 4 5 6 7 8 9 10 11 12 13 14 15 16 17 18 19 20 21 22 23 24 25 26 27 28 29 30 31 32 33 34 35 36 37 38 39 40 41 42 43 44 45 46 47 48 49 50
000
ASUS43 KDMX 110407
RWRIA

WEATHER ROUNDUP FOR IOWA
NATIONAL WEATHER SERVICE DES MOINES IA
1100 PM CDT THU JUL 10 2014

NOTE: "FAIR" INDICATES FEW OR NO CLOUDS BELOW 12,000 FEET WITH NO
SIGNIFICANT WEATHER AND/OR OBSTRUCTIONS TO VISIBILITY.

* - THESE STATIONS ARE NOT NWS STATIONS...THUS NOT UNDER NWS
QUALITY CONTROL.  THEY ALSO DO NOT REPORT WEATHER SUCH
AS PRECIPITATION OR FOG.

IAZ001>003-012>014-020>022-031>034-043>046-110500-
   NORTHWEST IOWA

CITY           SKY/WX    TMP DP  RH WIND       PRES   REMARKS
CARROLL *      CLOUDY   N/A N/A N/A S8        30.03R
CHEROKEE *     PTCLDY    72  66  83 S9        29.99S
DENISON *      CLEAR     72  63  73 S15G23    29.99S
LE MARS *      CLEAR     73  66  78 S13G21    29.97S
ORANGE CITY *  CLEAR     73  64  73 S13       29.97F
SHELDON *      CLEAR     73  64  73 S17G24    29.96S
SIOUX CITY     CLEAR     76  66  71 S14G22    29.97R
SPENCER        CLOUDY    72  61  68 S15       29.99S
STORM LAKE *   CLEAR     70  63  78 S15       30.02F
$$

IAZ055>058-069>071-079>083-090>094-110500-
   SOUTHWEST IOWA

CITY           SKY/WX    TMP DP  RH WIND       PRES   REMARKS
ATLANTIC *     MOCLDY    72  61  68 SE12G20   30.03S
AUDUBON *      CLEAR     72  64  78 S10       30.05S
CLARINDA *     CLEAR     72  72 100 SE12      30.05F
COUNCIL BLFS * CLEAR     72  68  88 SE14G20   30.00S
CRESTON *      CLEAR     64  61  88 SE7       30.08S
HARLAN  *      CLEAR     72  63  73 SE13G20   30.05S
LAMONI         CLEAR     68  59  73 SE10      30.09S
RED OAK *      CLEAR     72  64  78 SE12      30.03F
SHENANDOAH *   CLEAR     72  66  83 SE10      30.03F
$$

IAZ047>049-059>061-072>074-084-110500-
   CENTRAL IOWA

CITY           SKY/WX    TMP DP  RH WIND       PRES   REMARKS
AMES           MOCLDY    68  62  81 S6        30.06S
ANKENY *       CLEAR     72  61  68 S10       30.05F
CHARITON *     PTCLDY    66  61  82 SE9       30.09F
DES MOINES     PTCLDY    71  60  68 SE12      30.06S
GRINNELL*      PTCLDY    68  57  68 SE8       30.10F
KNOXVILLE *    PTCLDY    68  59  73 SE9       30.08S
MARSHALLTOWN   MOCLDY    69  57  65 SE12      30.07F
PELLA *        PTCLDY    70  59  68 SE7       30.10F
PERRY *          N/A     66  61  82 SE6       30.05S
$$

IAZ004>006-015-016-023>025-035-036-110500-
   NORTH CENTRAL IOWA

CITY           SKY/WX    TMP DP  RH WIND       PRES   REMARKS
ALGONA *       CLEAR     72  61  68 SE13      30.03S
CLARION *      CLEAR     72  59  64 S10       30.06R
ESTHERVILLE    CLOUDY    72  60  66 S15       30.01R
FORT DODGE *   MOCLDY    72  59  64 S10G17    30.04F
MASON CITY     MOCLDY    70  60  70 S10       30.08R
FOREST CITY *  CLEAR     72  59  64 S10G16    30.06R
IOWA FALLS *     N/A     70  59  68 S12       30.09R
$$

IAZ007>011-017>019-026>030-037>042-050>054-066-110500-
   NORTHEAST IOWA

CITY           SKY/WX    TMP DP  RH WIND       PRES   REMARKS
CEDAR RAPIDS   MOCLDY    66  59  78 S5        30.11R
CHARLES CITY * PTCLDY    68  59  73 S8        30.09R
CLINTON *      CLOUDY    68  61  77 S7        30.16S
DECORAH *        N/A    N/A N/A N/A MISG        N/A
DUBUQUE        MOCLDY    65  61  87 S7        30.13S
MONTICELLO *   CLEAR     64  61  88 SE5       30.12S
OELWEIN *      CLEAR     64  64 100 SE10      30.11S
WATERLOO       MOCLDY    72  58  61 S13       30.07S
$$

IAZ064-065-067-068-078-110500-
   EAST CENTRAL IOWA

CITY           SKY/WX    TMP DP  RH WIND       PRES   REMARKS
DAVENPORT      CLOUDY    67  60  78 S8        30.14S
IOWA CITY      MOCLDY    67  62  84 S5        30.13R
MT. PLEASANT * PTCLDY    64  57  77 SE6       30.13S
MUSCATINE *    CLEAR     66  61  82 CALM      30.13S
QUAD CITIES    MOCLDY    67  60  78 S7        30.13S
$$

IAZ062-063-075>077-085>089-095>099-110500-
   SOUTHEAST IOWA

CITY           SKY/WX    TMP DP  RH WIND       PRES   REMARKS
BURLINGTON     MOCLDY    70  59  68 SE8       30.13R
FAIRFIELD *    PTCLDY    66  57  72 SE6       30.13R
FORT MADISON * CLEAR     72  59  64 SE6       30.14S
KEOKUK *       CLEAR     70  59  68 SE7       30.13R
OSKALOOSA *      N/A     64  61  88 SE7       30.11F
CENTERVILLE *  CLEAR     64  63  94 SE6       30.13S
OTTUMWA        MOCLDY    65  59  81 SE6       30.11R
WASHINGTON *   CLEAR     64  61  88 SE6       30.12S
$$

ABBREVIATIONS USED IN REMARKS
   TC - TEMPERATURES IN CELSIUS
  WCI - WIND CHILL INDEX
   HX - HEAT INDEX
  VSB - VISIBILITY
$$




USA.gov is the U.S. government's official web portal to all federal, state and local government web resources and services.